Regional Weather Roundup
Issued by NWS

Home | Current Version | Previous Version | Graphics & Text | Print | Product List | Glossary On
Versions: 1 2 3 4 5 6 7 8 9 10 11 12 13 14 15 16 17 18 19 20 21 22 23 24 25 26 27 28 29 30 31 32 33 34 35 36 37 38 39 40 41 42 43 44 45 46 47 48 49 50
000
ASUS43 KOAX 250302
RWRNE

WEATHER ROUNDUP FOR NEBRASKA
NATIONAL WEATHER SERVICE OMAHA NE
900 PM CST SAT FEB 24 2018

NOTES: SATELLITE DATA IS BEING USED TO AUGMENT CLOUD COVER ABOVE
       12000 FEET.
       "FAIR" INDICATES FEW OR NO CLOUDS BELOW 12,000 FEET WITH NO
       SIGNIFICANT WEATHER AND/OR OBSTRUCTIONS TO VISIBILITY.


NEZ001>004-019>022-054>056-250400-
NEBRASKA PANHANDLE

CITY           SKY/WX    TMP DP  RH WIND       PRES   REMARKS
SCOTTSBLUFF    CLEAR     25  13  60 W15       29.79S WCI  13
ALLIANCE       CLEAR      8   4  83 W9        29.76S WCI  -5
CHADRON        CLEAR     11   5  77 W12       29.77S WCI  -3
GORDON         FAIR      19  10  68 W10       29.74S WCI   8
KIMBALL        PTCLDY    22   7  52 NW7       29.79S WCI  13
SIDNEY         CLEAR     21   9  59 W12       29.81S WCI   9
$$

NEZ057>060-069>072-079>082-250400-
SOUTHWEST NEBRASKA

CITY           SKY/WX    TMP DP  RH WIND       PRES   REMARKS
NORTH PLATTE   CLEAR     17  10  74 W3        29.83R
IMPERIAL       CLEAR     22  14  71 W8        29.85R WCI  12
LEXINGTON      CLEAR     27  19  70 W10       29.84R WCI  18
MCCOOK         CLEAR     26  18  71 NW6       29.86S WCI  19
OGALLALA       CLEAR     16  11  81 W7        29.82S WCI   6
$$

NEZ005>010-023>029-035>040-094-250400-
NORTH CENTRAL NEBRASKA

CITY           SKY/WX    TMP DP  RH WIND       PRES   REMARKS
VALENTINE      CLEAR     19  10  68 W10       29.75R WCI   7
AINSWORTH      CLEAR     21  13  72 W13       29.74S WCI   8
BROKEN BOW     CLEAR     22  11  62 W10       29.79R WCI  11
O`NEILL        CLEAR     19  14  80 W13       29.74R WCI   7
ORD            CLEAR     27  14  58 W20G30    29.77R WCI  13
THEDFORD         N/A     19  13  77 W6        29.78S WCI  10
$$

NEZ041-046>049-061>064-073>077-083>087-250400-
SOUTH CENTRAL NEBRASKA

CITY           SKY/WX    TMP DP  RH WIND       PRES   REMARKS
GRAND ISLAND   CLEAR     29  17  61 W16       29.82R WCI  17
AURORA         CLEAR     29  19  65 W18G25    29.80R WCI  16
HASTINGS       CLEAR     28  17  63 W17       29.83R WCI  16
HEBRON         CLEAR     32  23  69 W13       29.83R WCI  22
HOLDREGE       CLEAR     28  18  66 W6        29.85R WCI  21
KEARNEY        CLEAR     28  17  63 W12       29.84R WCI  18
YORK           CLEAR     28  23  80 W16       29.80R WCI  17
$$

NEZ011>018-030>034-042>045-250400-
NORTHEAST NEBRASKA

CITY           SKY/WX    TMP DP  RH WIND       PRES   REMARKS
NORFOLK        CLEAR     24  19  81 W15       29.72R WCI  11
ALBION         CLEAR     26  17  68 NW16G24   29.75R WCI  14
BLAIR          CLOUDY    27  25  92 SW8       29.72R WCI  18
COLUMBUS       CLEAR     28  23  81 W20G26    29.77R WCI  15
FREMONT        MOCLDY    29  25  82 W13       29.74R WCI  19
TEKAMAH        CLOUDY    27  23  85 SW8       29.73R WCI  19
WAYNE          CLOUDY    26  24  91 W22G28    29.71R WCI  12
$$

NEZ050>053-065>068-078-088>093-250400-
SOUTHEAST NEBRASKA

CITY           SKY/WX    TMP DP  RH WIND       PRES   REMARKS
LINCOLN        CLEAR     31  24  75 W13       29.80R WCI  21
OMAHA EPPLEY   PTCLDY    28  24  85 S6        29.75R WCI  22
BEATRICE       CLEAR     32  29  89 W12       29.81R WCI  23
FALLS CITY     CLEAR     30  27  88 SW10      29.81R WCI  21
NEBRASKA CITY  CLEAR     29  29 100 SW10      29.78R WCI  19
PLATTSMOUTH    PTCLDY    28  26  94 SW12      29.76R WCI  17
$$

NEZ044-045-051>053-067-250400-
OMAHA AREA

CITY           SKY/WX    TMP DP  RH WIND       PRES   REMARKS
OMAHA EPPLEY   PTCLDY    28  24  85 S6        29.75R WCI  22
BLAIR          CLOUDY    27  25  92 SW8       29.72R WCI  18
FREMONT        MOCLDY    29  25  82 W13       29.74R WCI  19
MILLARD        CLEAR     29  26  88 SW5       29.76R WCI  24
OFFUTT AFB     CLEAR     25  23  92 S3        29.75R
PLATTSMOUTH    PTCLDY    28  26  94 SW12      29.76R WCI  17
WAHOO          MOCLDY    28  24  84 W9        29.75R WCI  19
$$




USA.gov is the U.S. government's official web portal to all federal, state and local government web resources and services.